FABIEND Weather Reports


time (UTC)temp
C
wind
direction
speed
KPH
gust
KPH
rain 1hr
cm
rain 24hr
cm
rain mn
cm
humidity
%
barometer
mb
20260507213006 11 167 0.0 4.8 0.00 0.30 0.23 86 1013.2
20260507211506 11 167 0.0 1.6 0.00 0.30 0.23 86 1013.1
20260507210007 11 167 0.0 1.6 0.00 0.30 0.23 86 1013.1
20260507204505 11 167 0.0 0.0 0.00 0.30 0.23 85 1013.1
20260507203006 11 167 1.6 6.4 0.00 0.30 0.23 83 1012.9
20260507201512 12 167 0.0 1.6 0.00 0.30 0.23 81 1012.8
20260507200004 13 167 0.0 1.6 0.00 0.30 0.23 78 1012.8
20260507194504 13 167 0.0 6.4 0.00 0.30 0.23 77 1012.7
20260507193003 14 267 0.0 4.8 0.00 0.30 0.23 72 1012.5
20260507191504 15 298 0.0 3.2 0.00 0.30 0.23 69 1012.3
20260507190103 15 298 0.0 1.6 0.00 0.30 0.23 67 1012.4
20260507184502 16 298 0.0 3.2 0.00 0.30 0.23 66 1012.2
20260507183104 16 317 0.0 6.4 0.00 0.30 0.23 66 1012.2
20260507181602 16 46 0.0 8.0 0.00 0.30 0.23 65 1012.1
20260507180003 16 360 0.0 12.9 0.00 0.30 0.23 64 1012.0
20260507174637 16 21 4.8 12.9 0.00 0.30 0.23 65 1011.8
20260507173104 17 31 0.0 9.7 0.00 0.30 0.23 65 1011.8
20260507171505 17 30 9.7 16.1 0.00 0.30 0.23 65 1011.6
20260507170005 17 20 8.0 16.1 0.00 0.30 0.23 63 1011.6
20260507164506 17 19 4.8 14.5 0.00 0.30 0.23 65 1011.6
20260507163003 17 351 12.9 17.7 0.00 0.30 0.23 62 1011.6
20260507161502 17 228 4.8 17.7 0.00 0.30 0.23 60 1011.6
20260507160003 17 5 1.6 16.1 0.00 0.30 0.23 60 1011.8
20260507154501 18 77 6.4 12.9 0.00 0.30 0.23 61 1011.8
20260507153001 18 44 6.4 17.7 0.00 0.30 0.23 60 1011.7
20260507151601 18 336 3.2 9.7 0.00 0.30 0.23 60 1011.8
20260507150058 18 360 8.0 16.1 0.00 0.30 0.23 62 1011.9
20260507144558 18 48 9.7 19.3 0.00 0.30 0.23 64 1012.0
20260507143113 18 38 11.3 20.9 0.00 0.30 0.23 61 1012.1
20260507141617 18 10 9.7 16.1 0.00 0.30 0.23 64 1012.1
20260507140110 18 43 9.7 20.9 0.00 0.30 0.23 61 1012.4
20260507134552 18 17 3.2 14.5 0.00 0.30 0.23 61 1012.4
20260507133057 17 49 8.0 19.3 0.00 0.30 0.23 66 1012.6
20260507131614 18 25 6.4 19.3 0.00 0.30 0.23 63 1012.6
20260507130049 18 18 4.8 14.5 0.00 0.30 0.23 58 1012.7
20260507124553 17 59 4.8 16.1 0.00 0.30 0.23 67 1012.9
20260507123148 18 17 4.8 16.1 0.00 0.30 0.23 65 1013.0
20260507121546 17 5 8.0 16.1 0.00 0.30 0.23 67 1013.1
20260507120045 17 306 3.2 16.1 0.00 0.30 0.23 63 1013.1
20260507114545 17 16 4.8 12.9 0.00 0.30 0.23 68 1013.3
20260507113104 17 30 8.0 16.1 0.00 0.30 0.23 69 1013.4
20260507111541 17 49 6.4 20.9 0.00 0.30 0.23 70 1013.6
20260507110040 16 18 4.8 20.9 0.00 0.30 0.23 75 1013.6
20260507104536 16 26 6.4 17.7 0.00 0.30 0.23 76 1013.7
20260507103036 15 255 3.2 19.3 0.00 0.30 0.23 77 1013.9
20260507101536 15 69 3.2 12.9 0.00 0.30 0.23 78 1013.9
20260507100043 15 23 6.4 14.5 0.00 0.30 0.23 79 1014.1
20260507094537 16 355 4.8 16.1 0.00 0.30 0.23 78 1014.1
20260507093034 15 11 8.0 16.1 0.00 0.30 0.23 77 1014.1
20260507091534 15 11 1.6 16.1 0.00 0.30 0.23 85 1014.0
20260507090027 14 58 6.4 11.3 0.00 0.30 0.23 83 1014.0
20260507084543 13 360 4.8 11.3 0.00 0.30 0.23 84 1013.9
20260507083025 13 26 3.2 12.9 0.00 0.30 0.23 84 1014.0
20260507081521 13 5 6.4 12.9 0.00 0.30 0.23 87 1014.1
20260507080018 12 14 4.8 9.7 0.00 0.30 0.23 86 1014.1
20260507074517 12 65 0.0 6.4 0.00 0.33 0.23 89 1014.0
20260507073015 12 297 4.8 9.7 0.00 0.33 0.23 91 1014.0
20260507071516 11 17 0.0 6.4 0.00 0.33 0.23 93 1013.7
20260507070017 11 24 1.6 4.8 0.00 0.33 0.23 93 1013.6
20260507064508 11 109 1.6 4.8 0.00 0.33 0.23 95 1013.7
20260507063008 10 109 0.0 0.0 0.00 0.33 0.23 96 1013.6
20260507061506 8 160 0.0 0.0 0.00 0.33 0.23 96 1013.5
20260507060006 7 159 0.0 0.0 0.00 0.33 0.23 96 1013.6
20260507054508 7 159 0.0 0.0 0.00 0.33 0.23 96 1013.5
20260507053005 7 159 0.0 0.0 0.00 0.33 0.23 96 1013.4
20260507051502 7 159 0.0 0.0 0.00 0.33 0.23 96 1013.3
20260507050111 6 159 0.0 0.0 0.00 0.33 0.23 95 1013.1
20260507044600 6 159 0.0 0.0 0.00 1.30 0.23 95 1013.0
20260507043058 6 159 0.0 0.0 0.00 1.30 0.23 95 1012.9
20260507041557 6 159 0.0 0.0 0.00 1.30 0.23 95 1013.0
20260507040103 6 159 0.0 0.0 0.00 1.30 0.23 94 1012.9
20260507034559 6 159 0.0 3.2 0.00 1.42 0.23 95 1013.0
20260507033053 7 159 1.6 4.8 0.00 1.42 0.23 94 1012.9
20260507031555 7 159 0.0 4.8 0.00 1.42 0.23 95 1012.9
20260507030051 7 166 1.6 4.8 0.00 1.42 0.23 95 1012.8
20260507024550 7 166 0.0 0.0 0.00 1.70 0.23 94 1012.9
20260507023050 7 166 0.0 3.2 0.00 1.70 0.23 94 1012.8
20260507021558 7 217 0.0 3.2 0.00 1.70 0.23 95 1012.9
20260507020049 7 215 1.6 4.8 0.00 1.70 0.23 93 1012.8
20260507014548 7 215 1.6 3.2 0.00 1.78 0.23 94 1012.8
20260507013048 7 215 3.2 6.4 0.00 1.78 0.23 94 1012.7
20260507011549 7 163 0.0 4.8 0.00 1.78 0.23 93 1012.6
20260507010045 7 163 0.0 3.2 0.00 1.78 0.23 93 1012.5
20260507004540 7 163 1.6 4.8 0.00 2.21 0.23 93 1012.5
20260507003038 8 163 0.0 3.2 0.00 2.21 0.23 93 1012.5
20260507001537 8 163 1.6 8.0 0.00 2.21 0.23 93 1012.5
20260507000037 8 241 0.0 4.8 0.00 2.21 0.23 92 1012.6
20260506234538 8 225 3.2 6.4 0.00 2.31 0.23 92 1012.6
20260506233031 9 180 0.0 3.2 0.05 2.31 0.23 92 1012.6
20260506231529 10 247 0.0 4.8 0.08 2.31 0.23 91 1012.6
20260506230026 10 213 0.0 6.4 0.23 2.31 0.23 92 1012.5
20260506224526 10 169 1.6 4.8 0.28 2.31 0.20 93 1012.6
20260506223023 10 169 3.2 6.4 0.25 2.29 0.18 92 1012.9
20260506221522 10 213 0.0 4.8 0.20 2.21 0.13 90 1013.0
20260506220025 11 231 3.2 8.0 0.08 2.11 0.00 87 1012.8
20260506214516 11 194 1.6 4.8 0.00 2.06 2.03 91 1012.6